Theta_e
301 294 291 294 297 297 295 292 292 295 299 296 295 296 298 301 301 302 302 303 304 306 309 310 312 312 312 313 313 315 316 318 322 321 319 318 320 323 324 326 338 347 345 341
297 292 299 301 300 297 295 291 290 296 300 296 295 295 298 301 301 303 303 303 304 305 307 309 308 310 310 311 313 312 313 315 320 318 317 319 318 320 325 328 330 332 341 342
293 297 304 302 298 296 293 291 293 293 297 297 295 292 297 301 304 304 303 305 306 305 305 306 308 308 309 309 310 312 312 315 315 317 319 317 318 319 319 320 321 326 329 330
295 300 300 297 297 296 290 298 298 297 293 286 295 284 294 299 298 301 303 303 305 305 305 306 305 305 306 308 309 309 310 314 315 313 311 310 312 313 317 318 320 319 322 325
294 296 296 296 297 299 294 299 295 295 290 288 291 286 292 298 296 298 301 303 304 304 305 304 305 306 306 306 305 306 307 308 313 312 312 312 311 314 317 317 316 316 318 324
296 302 299 298 300 299 301 295 294 292 288 281 291 290 291 295 298 299 301 304 304 304 304 305 305 304 303 304 304 304 304 305 306 310 310 308 309 313 314 315 315 315 317 321
294 295 300 302 294 297 295 288 282 283 282 282 294 292 294 300 302 302 301 302 303 304 303 303 302 303 301 301 303 304 303 303 304 306 307 309 309 310 314 315 315 314 315 319
289 288 297 301 296 292 291 290 286 280 279 285 295 287 293 302 303 304 304 304 304 302 303 303 302 302 301 301 302 303 302 302 304 305 305 308 309 310 313 315 317 317 317 319
289 291 302 301 301 298 293 289 295 288 289 283 287 292 300 302 302 303 302 304 302 301 303 303 303 301 301 301 301 301 301 302 303 304 305 305 306 309 312 314 318 319 320 321
295 289 298 301 301 299 294 299 288 287 280 279 287 288 290 297 299 302 300 299 301 303 303 302 302 301 301 299 300 301 300 301 302 303 303 305 306 308 309 311 315 318 321 323
296 292 294 297 294 293 291 289 290 291 289 280 278 285 298 297 299 299 299 301 302 301 302 302 300 300 299 299 299 299 300 300 302 303 304 304 304 305 307 309 313 317 321 323
296 293 288 292 300 301 297 292 291 282 284 287 285 285 301 300 299 299 301 304 302 302 301 301 300 299 299 298 299 299 299 300 301 302 303 303 304 304 305 307 311 316 318 323
296 289 282 289 293 298 295 296 297 294 291 287 282 286 302 301 299 301 301 301 303 302 301 299 299 298 298 298 299 299 300 301 302 302 302 303 303 303 303 305 308 312 317 323
304 293 290 285 292 295 293 296 296 291 284 287 290 292 296 298 299 300 300 300 302 301 301 299 297 297 298 299 299 300 300 302 302 301 301 301 302 303 302 304 306 310 316 320
298 289 294 295 297 297 294 294 297 295 293 288 291 292 297 298 300 299 301 303 302 301 300 299 298 297 298 298 298 300 300 300 300 299 299 300 301 303 303 304 306 309 314 318
297 287 293 291 295 294 291 294 295 295 295 294 294 293 298 300 301 301 301 302 300 300 300 299 299 299 298 298 298 299 298 299 299 299 299 300 301 302 303 303 304 308 314 320
294 290 287 285 293 293 288 293 295 296 297 295 290 293 298 297 300 299 299 300 299 299 299 299 299 298 298 297 297 297 298 299 298 298 299 300 300 301 302 302 304 306 310 314
293 292 289 285 289 282 293 301 301 298 299 299 297 297 298 298 298 300 300 299 299 299 300 299 298 297 297 296 297 298 298 298 297 297 298 299 299 300 300 300 301 304 307 313
298 293 288 285 285 290 294 298 297 294 294 300 297 298 300 300 299 298 303 302 299 298 299 299 298 297 296 295 298 297 297 297 296 296 297 298 298 299 300 299 299 303 306 311
299 297 291 287 283 280 291 301 303 300 285 299 300 298 298 298 288 295 301 301 299 301 300 299 297 296 295 296 298 296 295 295 295 296 296 298 298 299 299 300 299 302 307 311
291 291 287 285 285 289 299 303 304 287 288 301 300 298 297 293 296 300 300 300 301 301 299 298 296 294 294 296 297 295 295 294 295 297 297 298 299 300 301 301 300 303 308 312
289 288 286 285 284 282 302 301 293 297 302 302 300 299 299 301 302 300 298 300 299 298 298 297 295 294 294 297 296 294 293 295 296 296 297 298 300 302 306 302 302 307 309 312
288 293 289 291 288 298 300 299 304 302 300 301 300 301 302 301 300 299 299 298 298 297 297 296 295 293 297 297 296 293 294 296 295 296 297 298 300 303 308 301 306 308 312 315
290 294 292 292 297 299 302 304 305 305 304 304 304 302 303 300 300 298 299 298 296 297 295 295 294 293 295 296 295 295 295 296 295 295 297 297 299 302 308 311 311 309 306 311
290 291 288 294 297 301 303 304 306 306 307 307 306 304 303 300 297 298 298 297 296 295 295 296 293 293 295 294 295 296 295 295 295 296 296 296 298 301 304 305 299 305 299 296
292 289 288 288 300 300 300 304 305 303 305 307 305 304 304 301 299 298 296 296 295 294 295 295 293 294 296 295 295 296 296 296 296 296 295 295 298 300 301 302 303 295 294 294
Wind_Speed
8 3 6 12 9 1 3 4 7 7 8 5 9 8 7 7 6 8 7 9 9 9 8 8 5 3 2 4 4 4 4 6 4 2 3 6 7 8 8 8 13 11 9 11
6 9 12 10 4 2 3 4 6 8 9 4 7 10 9 8 8 9 10 10 10 8 7 6 4 2 3 3 4 6 7 7 4 3 4 3 3 8 8 6 9 11 13 9
8 10 7 3 4 4 5 4 6 9 5 6 8 10 18 14 14 9 10 10 10 10 8 5 2 2 2 3 4 5 8 8 5 5 3 3 5 7 8 8 8 9 13 17
10 14 15 7 6 5 5 8 9 4 6 4 7 9 14 16 5 13 11 10 9 9 7 4 1 2 3 4 4 5 6 7 4 5 4 6 8 11 9 9 7 8 12 17
9 10 5 2 3 7 8 7 6 5 6 7 12 6 9 9 8 10 11 11 9 9 8 3 3 1 2 4 4 5 7 7 7 6 6 6 8 10 9 9 8 10 13 15
14 12 5 1 3 5 6 5 9 5 2 4 19 9 10 7 12 13 6 12 10 8 4 4 2 2 2 4 3 4 6 5 7 8 8 9 9 12 12 11 9 9 10 13
8 15 15 5 2 5 4 3 4 4 2 9 5 7 15 6 9 14 14 10 9 7 4 3 4 4 3 5 4 4 6 7 8 8 9 11 11 12 14 11 10 12 11 13
8 16 10 9 9 8 9 10 7 5 3 4 6 6 3 10 13 13 11 9 6 4 4 4 4 3 4 5 5 5 6 7 8 11 14 12 15 11 12 11 10 11 12 14
5 7 16 15 8 9 4 6 6 3 5 2 6 4 3 8 8 8 8 7 7 1 5 5 5 5 2 4 5 5 7 8 11 13 13 13 13 14 15 16 12 11 16 15
7 5 8 4 5 2 4 1 4 2 3 6 6 7 4 6 6 6 5 2 5 6 5 2 1 2 3 2 3 5 6 9 13 13 11 12 14 15 17 16 18 17 18 19
7 7 5 5 5 8 3 2 3 4 5 5 1 7 6 6 8 7 6 8 7 7 5 2 3 4 2 4 6 6 7 9 12 13 14 15 14 16 17 16 18 18 18 18
7 6 6 9 4 12 9 10 9 6 5 5 3 8 6 8 6 3 7 8 7 5 6 5 6 6 6 6 6 6 6 11 13 15 14 15 15 16 17 17 18 19 19 19
6 3 3 7 7 5 10 11 11 6 4 9 6 7 4 5 8 8 8 4 2 7 6 7 7 6 7 5 6 5 9 13 17 16 14 15 16 17 16 19 19 20 19 18
6 5 9 11 4 2 4 7 7 7 6 6 16 16 12 15 12 13 4 2 7 6 7 6 6 6 7 6 5 7 11 13 13 13 14 15 16 17 17 18 19 21 17 18
9 8 10 9 10 15 15 17 15 19 15 14 16 19 16 15 18 4 5 6 7 7 7 5 6 4 6 5 6 9 10 12 14 17 16 15 16 17 17 18 18 21 20 15
4 6 9 12 11 13 18 21 20 18 17 14 16 19 12 10 7 7 7 6 7 6 5 6 5 6 5 6 8 10 13 14 16 15 15 16 16 17 16 18 17 20 19 14
6 1 3 11 10 10 16 16 17 17 16 10 18 7 3 5 7 6 6 8 6 5 5 6 7 4 5 6 7 12 14 15 16 15 15 15 15 17 15 18 17 18 20 13
14 14 5 4 6 13 8 10 14 17 10 5 1 2 6 6 4 8 8 7 6 5 5 7 2 3 4 6 9 13 14 15 15 15 15 15 15 16 17 17 17 17 15 15
20 17 7 9 11 11 12 5 2 2 7 4 2 2 5 5 4 4 7 7 4 2 6 5 3 3 4 6 11 13 15 15 15 16 16 17 16 17 17 17 17 16 14 14
19 19 13 6 10 11 8 13 8 2 6 6 5 6 5 5 2 4 4 3 2 6 6 4 5 4 6 8 11 13 15 16 15 17 18 18 18 16 16 17 16 15 13 15
19 15 18 11 8 7 8 11 8 6 8 7 7 5 2 2 6 5 4 2 4 5 4 6 6 5 5 8 11 13 14 15 17 17 18 18 18 17 17 16 13 13 13 13
20 12 8 6 8 14 12 9 10 8 5 7 6 5 3 4 7 5 1 5 2 5 6 6 6 5 5 9 10 13 14 16 17 17 18 18 17 14 12 8 10 11 11 15
5 3 5 8 7 1 2 7 7 8 5 6 4 4 5 4 4 4 3 4 4 5 5 4 6 5 8 7 10 12 15 15 17 17 17 17 18 17 8 6 8 9 10 12
5 8 4 5 13 10 9 4 4 8 7 5 4 2 6 5 5 2 4 4 4 5 4 4 6 6 7 6 10 11 13 14 16 16 16 16 15 17 13 6 5 6 7 7
0 7 3 8 17 10 6 9 9 7 8 7 5 4 8 7 1 4 4 5 6 3 3 6 5 5 6 6 10 11 13 14 15 12 13 14 11 13 11 8 10 7 5 5
5 6 1 4 3 3 6 6 6 8 6 4 8 7 7 7 6 8 5 5 3 3 3 5 5 6 5 6 10 11 13 13 14 12 10 10 10 10 9 9 5 12 15 19
Wind_Direction
256 189 228 232 228 204 49 324 307 303 298 319 283 272 272 270 277 257 205 149 142 134 140 115 109 91 301 268 280 299 302 287 299 313 328 311 310 312 307 299 295 267 238 235
293 230 239 253 77 9 321 319 282 285 284 296 326 300 281 250 239 230 184 155 150 138 134 112 97 113 308 283 267 268 272 272 244 266 262 250 281 297 291 304 300 287 282 243
247 255 51 136 236 273 288 245 271 258 310 333 330 290 271 255 251 211 151 147 143 150 141 128 206 60 47 345 302 285 284 272 253 279 307 299 292 289 296 295 296 301 314 311
252 250 252 176 213 243 269 267 276 340 13 278 46 283 294 286 230 152 154 153 157 143 139 136 60 18 319 288 334 355 356 319 290 285 296 283 282 286 281 285 281 294 296 290
262 308 263 218 219 249 238 48 5 1 324 335 273 270 269 249 196 181 172 170 138 143 114 70 33 32 16 17 0 10 345 329 301 286 265 266 279 285 281 280 278 277 285 273
263 280 293 247 3 331 42 19 333 301 210 285 254 194 275 261 202 175 134 131 128 114 103 76 20 24 9 13 18 325 312 301 310 291 277 266 275 287 286 279 270 274 279 279
277 257 259 162 183 274 108 88 325 335 172 224 275 213 230 310 120 128 125 118 119 144 129 108 5 333 355 355 354 348 348 312 301 299 312 291 282 287 279 274 270 276 280 276
269 301 242 179 173 186 198 163 168 229 249 288 293 253 325 86 76 88 99 118 150 155 127 90 349 40 31 355 4 339 321 317 320 325 319 317 311 295 282 272 257 265 270 274
235 257 332 157 142 151 277 198 217 65 335 337 247 283 69 108 111 129 150 161 164 76 101 49 15 101 24 34 352 339 344 326 326 321 315 310 306 313 309 293 270 265 269 270
222 280 265 135 103 274 171 66 52 0 210 252 264 247 186 135 164 132 112 184 163 105 88 48 16 97 55 52 330 0 336 317 309 305 307 307 311 309 306 303 295 288 271 271
141 130 281 358 182 181 168 226 203 154 172 190 309 278 137 111 134 141 207 239 206 146 144 108 63 86 48 20 9 331 312 316 317 318 315 311 310 307 300 294 294 287 287 272
193 154 187 229 273 198 202 196 177 140 242 217 192 266 45 116 123 172 259 273 138 143 98 68 71 34 13 10 334 313 325 315 315 314 312 310 303 300 298 295 296 294 290 273
176 204 66 322 314 258 215 205 205 175 151 210 183 254 238 25 340 291 269 92 134 94 74 60 41 14 346 322 310 317 315 321 317 315 309 307 303 301 299 297 295 292 288 279
150 188 167 192 215 88 255 214 221 199 204 231 235 256 266 296 297 280 260 81 84 70 72 65 19 337 326 313 325 317 320 322 317 316 307 304 301 300 299 295 294 293 289 291
161 208 209 228 245 282 285 278 240 221 226 213 248 247 251 245 248 199 97 78 53 55 52 26 335 331 307 328 322 320 324 321 320 314 306 303 300 296 297 297 298 298 293 287
163 232 200 236 241 260 274 270 265 258 251 245 241 253 238 238 123 86 85 69 65 49 23 360 332 301 333 335 331 338 326 320 316 305 302 304 300 303 301 299 302 303 301 305
304 219 151 244 233 258 266 242 251 256 246 244 251 261 32 59 80 100 86 92 81 46 12 329 304 359 360 349 334 328 320 313 311 304 305 304 305 298 301 301 302 301 305 308
236 234 178 216 184 232 245 219 239 244 236 210 355 39 69 103 69 91 99 92 64 22 335 298 328 24 14 333 338 327 318 310 308 307 307 304 303 302 298 297 296 295 298 303
210 200 224 211 214 269 291 283 46 58 278 229 159 8 67 37 47 83 93 95 100 287 273 277 112 83 22 351 337 322 314 310 309 311 312 309 303 297 293 290 290 290 295 302
222 190 183 206 219 218 196 225 122 80 300 248 177 105 71 46 19 244 102 76 347 281 278 106 92 63 26 349 334 319 314 313 314 317 311 306 301 293 285 280 282 284 283 286
212 191 197 202 209 251 231 129 131 130 223 116 104 106 111 119 185 158 118 260 261 251 103 103 84 62 27 341 328 318 317 316 317 316 312 307 304 295 281 270 273 277 283 289
246 188 193 191 217 250 190 144 161 190 137 138 119 103 80 92 120 115 62 273 58 53 84 84 85 54 23 345 328 323 320 319 319 321 314 314 309 305 295 264 277 290 291 294
219 190 213 171 217 323 156 151 149 138 148 116 105 148 171 157 124 125 254 78 59 70 108 94 94 48 6 340 333 325 323 323 324 320 322 323 322 329 309 251 282 285 280 284
265 10 15 36 281 225 180 186 187 173 167 157 200 131 109 84 115 102 84 63 63 55 50 102 80 42 354 337 336 327 323 326 324 321 332 331 336 337 346 347 336 351 16 337
247 4 288 256 259 233 168 193 172 161 174 187 192 165 120 103 81 94 78 69 70 55 348 96 97 58 352 340 339 332 333 331 326 326 336 335 333 342 349 20 7 20 96 21
173 213 272 261 246 33 299 327 128 98 118 179 174 126 137 142 107 83 67 87 66 338 56 94 77 67 359 0 343 340 337 333 329 333 343 336 333 344 355 8 19 14 12 16